,,,PA_Meas_PMT16A,,PR_Meas_QMR101_102,,RH_Meas_QMH101,,SR_Meas_QMS101,,TA_Meas_QMH101,,GenWind,,GenWind,
date,time,status,PA,status,PR,status,RH,status,SR,status,TA,status,DirAvg,status,SpdAvg,
2009-03-23, 00:00:04,VALID,1004.89,VALID,0,VALID,84.1008,VALID,0,VALID,26.0985,VALID,347,VALID,0.445313,
2009-03-23, 00:01:04,VALID,1004.88,VALID,0,VALID,84.2076,VALID,0,VALID,26.0985,VALID,351,VALID,0.402734,
2009-03-23, 00:02:04,VALID,1004.85,VALID,0,VALID,84.1847,VALID,0,VALID,26.12,VALID,340,VALID,0.797656,
2009-03-23, 00:03:04,VALID,1004.82,VALID,0,VALID,84.2228,VALID,0,VALID,26.0791,VALID,338,VALID,0.682813,
2009-03-23, 00:04:04,VALID,1004.78,VALID,0,VALID,84.2381,VALID,0,VALID,26.0791,VALID,355,VALID,0.69375,
2009-03-23, 00:05:04,VALID,1004.76,VALID,0,VALID,84.261,VALID,0,VALID,26.0576,VALID,352,VALID,0.532812,
2009-03-23, 00:06:04,VALID,1004.71,VALID,0,VALID,84.2457,VALID,0,VALID,26.0596,VALID,353,VALID,0.709766,
2009-03-23, 00:07:04,VALID,1004.73,VALID,0,VALID,84.3296,VALID,0,VALID,26.0576,VALID,23,VALID,0.528516,
2009-03-23, 00:08:04,VALID,1004.72,VALID,0,VALID,84.3144,VALID,0,VALID,26.0596,VALID,342,VALID,0.515234,
2009-03-23, 00:09:04,VALID,1004.71,VALID,0,VALID,84.261,VALID,0,VALID,26.0381,VALID,354,VALID,0.708984,
2009-03-23, 00:10:04,VALID,1004.71,VALID,0,VALID,84.3068,VALID,0,VALID,26.0596,VALID,342,VALID,0.755859,
2009-03-23, 00:11:04,VALID,1004.72,VALID,0,VALID,84.3602,VALID,0.100563,VALID,26.0791,VALID,324,VALID,0.420312,
2009-03-23, 00:12:04,VALID,1004.68,VALID,0,VALID,84.3296,VALID,0,VALID,26.0596,VALID,3,VALID,0.553516,
2009-03-23, 00:13:04,VALID,1004.67,VALID,0,VALID,84.3296,VALID,0,VALID,26.0596,VALID,359,VALID,0.629297,
2009-03-23, 00:14:04,VALID,1004.66,VALID,0,VALID,84.322,VALID,0,VALID,26.0401,VALID,352,VALID,0.509766,
2009-03-23, 00:15:04,VALID,1004.61,VALID,0,VALID,84.2381,VALID,0,VALID,26.0401,VALID,349,VALID,0.70625,
2009-03-23, 00:16:04,VALID,1004.59,VALID,0,VALID,84.2152,VALID,0,VALID,26.0401,VALID,329,VALID,0.214453,
2009-03-23, 00:17:04,VALID,1004.54,VALID,0,VALID,84.2762,VALID,0,VALID,26.0187,VALID,357,VALID,0.670313,
2009-03-23, 00:18:04,VALID,1004.52,VALID,0,VALID,84.2076,VALID,0,VALID,26.0206,VALID,355,VALID,0.828906,
2009-03-23, 00:19:04,VALID,1004.46,VALID,0,VALID,84.0626,VALID,0,VALID,25.9992,VALID,354,VALID,0.5375,
2009-03-23, 00:20:04,VALID,1004.44,VALID,0,VALID,84.0626,VALID,0,VALID,26.0187,VALID,350,VALID,0.375391,
2009-03-23, 00:21:04,VALID,1004.41,VALID,0,VALID,83.8338,VALID,0.100563,VALID,25.9992,VALID,320,VALID,0.545703,
2009-03-23, 00:22:04,VALID,1004.34,VALID,0,VALID,83.7422,VALID,0,VALID,26.0187,VALID,358,VALID,0.766406,
2009-03-23, 00:23:04,VALID,1004.31,VALID,0,VALID,83.6964,VALID,0,VALID,26.0187,VALID,355,VALID,0.410547,
2009-03-23, 00:24:04,VALID,1004.29,VALID,0,VALID,83.7117,VALID,0,VALID,26.0187,VALID,341,VALID,0.612109,
2009-03-23, 00:25:04,VALID,1004.26,VALID,0,VALID,83.6125,VALID,0,VALID,26.0576,VALID,349,VALID,0.809766,
2009-03-23, 00:26:04,VALID,1004.24,VALID,0,VALID,83.7575,VALID,0,VALID,26.0381,VALID,353,VALID,0.226953,
2009-03-23, 00:27:04,VALID,1004.23,VALID,0,VALID,83.7651,VALID,0,VALID,26.0596,VALID,299,VALID,0.33125,
2009-03-23, 00:28:04,VALID,1004.23,VALID,0,VALID,83.8643,VALID,0,VALID,26.0187,VALID,299,VALID,0.00585938,
2009-03-23, 00:29:04,VALID,1004.23,VALID,0,VALID,83.6202,VALID,0,VALID,26.0187,VALID,347,VALID,0.579687,
2009-03-23, 00:30:04,VALID,1004.18,VALID,0,VALID,83.6888,VALID,0,VALID,26.0401,VALID,350,VALID,0.312891,
2009-03-23, 00:31:04,VALID,1004.14,VALID,0,VALID,83.7422,VALID,0,VALID,26.0187,VALID,3,VALID,0.271094,
2009-03-23, 00:32:04,VALID,1004.13,VALID,0,VALID,83.4523,VALID,0,VALID,25.9992,VALID,347,VALID,1.0582,
2009-03-23, 00:33:04,VALID,1004.11,VALID,0,VALID,83.4447,VALID,0,VALID,26.0187,VALID,333,VALID,0.725,
2009-03-23, 00:34:04,VALID,1004.06,VALID,0,VALID,83.5439,VALID,0,VALID,26.0616,VALID,333,VALID,0.307031,
2009-03-23, 00:35:04,VALID,1004.07,VALID,0,VALID,83.5286,VALID,0,VALID,26.0616,VALID,337,VALID,0.5,
2009-03-23, 00:36:04,VALID,1004.03,VALID,0,VALID,83.4752,VALID,0,VALID,26.0206,VALID,335,VALID,0.694141,
2009-03-23, 00:37:04,VALID,1004.04,VALID,0,VALID,83.4828,VALID,0,VALID,26.0187,VALID,341,VALID,0.470313,
2009-03-23, 00:38:04,VALID,1004.03,VALID,0,VALID,83.4905,VALID,0,VALID,26.0206,VALID,353,VALID,0.632031,
2009-03-23, 00:39:04,VALID,1004.03,VALID,0,VALID,83.7804,VALID,0,VALID,26.0012,VALID,312,VALID,0.0246094,
2009-03-23, 00:40:04,VALID,1004,VALID,0,VALID,83.521,VALID,0,VALID,25.9817,VALID,343,VALID,1.43086,
2009-03-23, 00:41:04,VALID,1003.98,VALID,0,VALID,83.3226,VALID,0,VALID,26.0012,VALID,345,VALID,1.48906,
2009-03-23, 00:42:04,VALID,1004.02,VALID,0,VALID,83.2006,VALID,0,VALID,26.0381,VALID,346,VALID,0.880078,
2009-03-23, 00:43:04,VALID,1004.02,VALID,0,VALID,83.0098,VALID,0,VALID,26.0401,VALID,330,VALID,0.501562,
2009-03-23, 00:44:04,VALID,1004.03,VALID,0,VALID,82.8115,VALID,0,VALID,26.0596,VALID,356,VALID,1.04766,
2009-03-23, 00:45:04,VALID,1004.03,VALID,0,VALID,82.8344,VALID,0,VALID,26.0576,VALID,348,VALID,0.759766,
2009-03-23, 00:46:04,VALID,1004.07,VALID,0,VALID,82.9564,VALID,0,VALID,26.0791,VALID,319,VALID,0.384375,
2009-03-23, 00:47:04,VALID,1004.06,VALID,0,VALID,82.8344,VALID,0,VALID,26.0791,VALID,325,VALID,0.413672,
2009-03-23, 00:48:04,VALID,1004.07,VALID,0,VALID,82.9107,VALID,0,VALID,26.0596,VALID,324,VALID,0.275781,
2009-03-23, 00:49:04,VALID,1004.09,VALID,0,VALID,83.2387,VALID,0,VALID,26.0596,VALID,326,VALID,0.132422,
2009-03-23, 00:50:04,VALID,1004.07,VALID,0,VALID,83.1014,VALID,0,VALID,26.0206,VALID,352,VALID,0.628906,
2009-03-23, 00:51:04,VALID,1004.04,VALID,0,VALID,82.9336,VALID,0,VALID,26.0226,VALID,342,VALID,0.705859,
2009-03-23, 00:52:04,VALID,1004.03,VALID,0,VALID,82.9412,VALID,0,VALID,26.0012,VALID,345,VALID,0.873828,
2009-03-23, 00:53:04,VALID,1004.03,VALID,0,VALID,83.0251,VALID,0,VALID,25.9817,VALID,349,VALID,0.571094,
2009-03-23, 00:54:04,VALID,1004.04,VALID,0,VALID,83.2158,VALID,0,VALID,25.9602,VALID,350,VALID,0.0894531,
2009-03-23, 00:55:04,VALID,1004.03,VALID,0,VALID,83.2921,VALID,0,VALID,25.9427,VALID,350,VALID,0.129688,
2009-03-23, 00:56:04,VALID,1004.02,VALID,0,VALID,83.2997,VALID,0,VALID,25.9018,VALID,351,VALID,0.615625,
2009-03-23, 00:57:04,VALID,1004.01,VALID,0,VALID,83.2845,VALID,0,VALID,25.8823,VALID,354,VALID,0.877344,
2009-03-23, 00:58:04,VALID,1004.02,VALID,0,VALID,83.2997,VALID,0,VALID,25.8629,VALID,340,VALID,0.676953,
2009-03-23, 00:59:04,VALID,1004.02,VALID,0,VALID,83.3989,VALID,0,VALID,25.8843,VALID,330,VALID,0.714063,
2009-03-23, 01:00:04,VALID,1003.99,VALID,0,VALID,83.4828,VALID,0,VALID,25.8453,VALID,319,VALID,0.632031,
2009-03-23, 01:01:04,VALID,1004,VALID,0,VALID,83.5668,VALID,0,VALID,25.8259,VALID,356,VALID,0.580078,
2009-03-23, 01:02:04,VALID,1003.99,VALID,0,VALID,83.7193,VALID,0.100563,VALID,25.8064,VALID,344,VALID,0.639453,
2009-03-23, 01:03:04,VALID,1003.98,VALID,0,VALID,83.6964,VALID,0,VALID,25.7869,VALID,354,VALID,0.823828,
2009-03-23, 01:04:04,VALID,1003.98,VALID,0,VALID,83.8872,VALID,0,VALID,25.748,VALID,307,VALID,0.364453,
2009-03-23, 01:05:04,VALID,1003.97,VALID,0,VALID,83.9482,VALID,0,VALID,25.7265,VALID,349,VALID,0.367578,
2009-03-23, 01:06:04,VALID,1004.01,VALID,0,VALID,84.116,VALID,0,VALID,25.6895,VALID,343,VALID,0.627734,
2009-03-23, 01:07:04,VALID,1003.99,VALID,0,VALID,84.2991,VALID,0,VALID,25.67,VALID,352,VALID,0.625391,
2009-03-23, 01:08:04,VALID,1004.02,VALID,0,VALID,84.4364,VALID,0,VALID,25.6506,VALID,6,VALID,0.580078,
2009-03-23, 01:09:04,VALID,1004.04,VALID,0,VALID,84.4746,VALID,0,VALID,25.6097,VALID,350,VALID,0.623828,
2009-03-23, 01:10:04,VALID,1004,VALID,0,VALID,84.4593,VALID,0,VALID,25.6506,VALID,347,VALID,0.912891,
2009-03-23, 01:11:04,VALID,1003.99,VALID,0,VALID,84.589,VALID,0,VALID,25.6311,VALID,358,VALID,0.290625,
2009-03-23, 01:12:04,VALID,1003.97,VALID,0,VALID,84.4975,VALID,0,VALID,25.6292,VALID,339,VALID,1.06328,
2009-03-23, 01:13:04,VALID,1003.95,VALID,0,VALID,84.4136,VALID,0,VALID,25.67,VALID,348,VALID,0.901563,
2009-03-23, 01:14:04,VALID,1003.93,VALID,0,VALID,84.3373,VALID,0,VALID,25.67,VALID,349,VALID,0.63125,
2009-03-23, 01:15:04,VALID,1003.95,VALID,0,VALID,84.4136,VALID,0,VALID,25.6681,VALID,308,VALID,0.685156,
2009-03-23, 01:16:04,VALID,1003.93,VALID,0,VALID,84.2305,VALID,0,VALID,25.709,VALID,339,VALID,0.9125,
2009-03-23, 01:17:04,VALID,1003.94,VALID,0,VALID,84.2228,VALID,0,VALID,25.7265,VALID,5,VALID,0.537109,
2009-03-23, 01:18:04,VALID,1003.93,VALID,0,VALID,84.2762,VALID,0,VALID,25.7265,VALID,359,VALID,0.385547,
2009-03-23, 01:19:04,VALID,1003.95,VALID,0,VALID,84.0397,VALID,0,VALID,25.7265,VALID,344,VALID,1.36445,
2009-03-23, 01:20:04,VALID,1003.96,VALID,0,VALID,83.9635,VALID,0,VALID,25.7869,VALID,360,VALID,0.625,
2009-03-23, 01:21:04,VALID,1003.98,VALID,0,VALID,83.9024,VALID,0,VALID,25.8259,VALID,344,VALID,0.646094,
2009-03-23, 01:22:04,VALID,1003.96,VALID,0,VALID,83.7804,VALID,0,VALID,25.8239,VALID,330,VALID,0.889453,
2009-03-23, 01:23:04,VALID,1003.96,VALID,0,VALID,83.6278,VALID,0,VALID,25.8453,VALID,348,VALID,0.58125,
2009-03-23, 01:24:04,VALID,1003.97,VALID,0,VALID,83.521,VALID,0,VALID,25.8434,VALID,343,VALID,0.872266,
2009-03-23, 01:25:04,VALID,1003.97,VALID,0,VALID,83.4065,VALID,0,VALID,25.8629,VALID,347,VALID,0.997266,
2009-03-23, 01:26:04,VALID,1003.95,VALID,0,VALID,83.4828,VALID,0,VALID,25.8843,VALID,10,VALID,0.379687,
2009-03-23, 01:27:04,VALID,1003.96,VALID,0,VALID,83.3837,VALID,0,VALID,25.8629,VALID,350,VALID,0.971484,
2009-03-23, 01:28:04,VALID,1003.95,VALID,0,VALID,83.4065,VALID,0,VALID,25.8843,VALID,312,VALID,0.628516,
2009-03-23, 01:29:04,VALID,1003.95,VALID,0,VALID,83.2235,VALID,0,VALID,25.8843,VALID,333,VALID,0.663281,
2009-03-23, 01:30:04,VALID,1003.92,VALID,0,VALID,83.1853,VALID,0,VALID,25.8823,VALID,3,VALID,0.882422,
2009-03-23, 01:31:04,VALID,1003.93,VALID,0,VALID,83.2463,VALID,0,VALID,25.8629,VALID,355,VALID,0.244141,
2009-03-23, 01:32:04,VALID,1003.93,VALID,0,VALID,83.1243,VALID,0,VALID,25.8648,VALID,342,VALID,0.680859,
2009-03-23, 01:33:04,VALID,1003.94,VALID,0,VALID,83.3379,VALID,0,VALID,25.8239,VALID,351,VALID,0.448438,
2009-03-23, 01:34:04,VALID,1003.88,VALID,0,VALID,83.3913,VALID,0,VALID,25.8259,VALID,357,VALID,0.780859,
2009-03-23, 01:35:04,VALID,1003.92,VALID,0,VALID,83.3913,VALID,0,VALID,25.7869,VALID,345,VALID,0.890234,
2009-03-23, 01:36:04,VALID,1003.9,VALID,0,VALID,83.5362,VALID,0,VALID,25.748,VALID,344,VALID,1.04023,
2009-03-23, 01:37:04,VALID,1003.91,VALID,0,VALID,83.7498,VALID,0,VALID,25.7285,VALID,349,VALID,0.685938,
2009-03-23, 01:38:04,VALID,1003.89,VALID,0,VALID,83.9177,VALID,0,VALID,25.6895,VALID,317,VALID,0.303516,
2009-03-23, 01:39:04,VALID,1003.9,VALID,0,VALID,83.9253,VALID,0,VALID,25.67,VALID,339,VALID,0.940234,
2009-03-23, 01:40:04,VALID,1003.9,VALID,0,VALID,84.0169,VALID,0,VALID,25.6097,VALID,259,VALID,0.932031,
2009-03-23, 01:41:04,VALID,1003.87,VALID,0,VALID,84.0474,VALID,0,VALID,25.6116,VALID,339,VALID,1.01836,
2009-03-23, 01:42:04,VALID,1003.88,VALID,0,VALID,84.1771,VALID,0,VALID,25.5921,VALID,335,VALID,0.65625,
2009-03-23, 01:43:04,VALID,1003.86,VALID,0,VALID,84.0931,VALID,0,VALID,25.5921,VALID,342,VALID,1.48242,
2009-03-23, 01:44:04,VALID,1003.86,VALID,0,VALID,84.2534,VALID,0,VALID,25.5921,VALID,344,VALID,0.640625,
2009-03-23, 01:45:04,VALID,1003.84,VALID,0,VALID,84.2915,VALID,0,VALID,25.5513,VALID,330,VALID,1.04648,
2009-03-23, 01:46:04,VALID,1003.84,VALID,0,VALID,84.3449,VALID,0,VALID,25.5532,VALID,335,VALID,0.541406,
2009-03-23, 01:47:04,VALID,1003.86,VALID,0,VALID,84.383,VALID,0,VALID,25.5532,VALID,355,VALID,0.68125,
2009-03-23, 01:48:04,VALID,1003.87,VALID,0,VALID,84.5585,VALID,0,VALID,25.5123,VALID,352,VALID,0.376172,
2009-03-23, 01:49:04,VALID,1003.84,VALID,0,VALID,84.6195,VALID,0,VALID,25.5337,VALID,346,VALID,0.776172,
2009-03-23, 01:50:04,VALID,1003.85,VALID,0,VALID,84.6272,VALID,0,VALID,25.5142,VALID,1,VALID,0.910156,
2009-03-23, 01:51:04,VALID,1003.86,VALID,0,VALID,84.7263,VALID,0,VALID,25.5142,VALID,349,VALID,0.280469,
2009-03-23, 01:52:04,VALID,1003.85,VALID,0,VALID,84.7035,VALID,0,VALID,25.4928,VALID,338,VALID,1.13437,
2009-03-23, 01:53:04,VALID,1003.86,VALID,0,VALID,84.6882,VALID,0,VALID,25.5337,VALID,351,VALID,0.730859,
2009-03-23, 01:54:04,VALID,1003.87,VALID,0,VALID,84.6043,VALID,0,VALID,25.5337,VALID,353,VALID,1.35195,
2009-03-23, 01:55:04,VALID,1003.84,VALID,0,VALID,84.6348,VALID,0,VALID,25.5337,VALID,349,VALID,0.869141,
2009-03-23, 01:56:04,VALID,1003.85,VALID,0,VALID,84.6729,VALID,0,VALID,25.5318,VALID,9,VALID,1.075,
2009-03-23, 01:57:04,VALID,1003.84,VALID,0,VALID,84.5127,VALID,0,VALID,25.5727,VALID,334,VALID,0.757031,
2009-03-23, 01:58:04,VALID,1003.87,VALID,0,VALID,84.5204,VALID,0,VALID,25.5921,VALID,352,VALID,1.27148,
2009-03-23, 01:59:04,VALID,1003.85,VALID,0,VALID,84.4212,VALID,0,VALID,25.5921,VALID,346,VALID,1.60586,
2009-03-23, 02:00:04,VALID,1003.85,VALID,0,VALID,84.3602,VALID,0,VALID,25.5921,VALID,350,VALID,0.716406,
2009-03-23, 02:01:04,VALID,1003.86,VALID,0,VALID,84.2915,VALID,0,VALID,25.5707,VALID,322,VALID,1.46602,
2009-03-23, 02:02:04,VALID,1003.84,VALID,0,VALID,84.322,VALID,0,VALID,25.6311,VALID,29,VALID,0.3875,
2009-03-23, 02:03:04,VALID,1003.85,VALID,0,VALID,84.4364,VALID,0,VALID,25.6311,VALID,327,VALID,0.935938,
2009-03-23, 02:04:04,VALID,1003.85,VALID,0,VALID,84.4212,VALID,0,VALID,25.6097,VALID,288,VALID,0.41875,
2009-03-23, 02:05:04,VALID,1003.83,VALID,0,VALID,84.3525,VALID,0,VALID,25.6311,VALID,296,VALID,0.814453,
2009-03-23, 02:06:04,VALID,1003.81,VALID,0,VALID,84.3525,VALID,0,VALID,25.6311,VALID,348,VALID,1.06953,
2009-03-23, 02:07:04,VALID,1003.81,VALID,0,VALID,84.2457,VALID,0,VALID,25.6097,VALID,351,VALID,1.17578,
2009-03-23, 02:08:04,VALID,1003.83,VALID,0,VALID,84.4059,VALID,0,VALID,25.6311,VALID,354,VALID,1.0582,
2009-03-23, 02:09:04,VALID,1003.84,VALID,0,VALID,84.5509,VALID,0,VALID,25.6311,VALID,283,VALID,0.490234,
2009-03-23, 02:10:04,VALID,1003.83,VALID,0,VALID,84.5509,VALID,0,VALID,25.6311,VALID,350,VALID,0.498047,
2009-03-23, 02:11:04,VALID,1003.8,VALID,0,VALID,84.6729,VALID,0,VALID,25.5902,VALID,1,VALID,0.6375,
2009-03-23, 02:12:04,VALID,1003.82,VALID,0,VALID,84.7035,VALID,0,VALID,25.5902,VALID,353,VALID,0.670703,
2009-03-23, 02:13:04,VALID,1003.79,VALID,0,VALID,84.5814,VALID,0,VALID,25.5727,VALID,339,VALID,0.707422,
2009-03-23, 02:14:04,VALID,1003.77,VALID,0,VALID,84.7569,VALID,0,VALID,25.5727,VALID,1,VALID,0.669531,
2009-03-23, 02:15:04,VALID,1003.73,VALID,0,VALID,84.7797,VALID,0,VALID,25.5513,VALID,354,VALID,0.80625,
2009-03-23, 02:16:04,VALID,1003.73,VALID,0,VALID,84.7645,VALID,0,VALID,25.5727,VALID,330,VALID,0.820313,
2009-03-23, 02:17:04,VALID,1003.72,VALID,0,VALID,84.8103,VALID,0,VALID,25.5513,VALID,356,VALID,0.644922,
2009-03-23, 02:18:04,VALID,1003.69,VALID,0,VALID,84.9247,VALID,0,VALID,25.5513,VALID,353,VALID,0.330078,
2009-03-23, 02:19:04,VALID,1003.69,VALID,0,VALID,84.8408,VALID,0,VALID,25.5318,VALID,355,VALID,0.707031,
2009-03-23, 02:20:04,VALID,1003.67,VALID,0,VALID,84.856,VALID,0,VALID,25.5532,VALID,323,VALID,0.716406,
2009-03-23, 02:21:04,VALID,1003.62,VALID,0,VALID,84.9247,VALID,0,VALID,25.5513,VALID,337,VALID,0.54375,
2009-03-23, 02:22:04,VALID,1003.59,VALID,0,VALID,84.734,VALID,0,VALID,25.5727,VALID,339,VALID,0.976172,
2009-03-23, 02:23:04,VALID,1003.54,VALID,0,VALID,84.8332,VALID,0,VALID,25.5727,VALID,351,VALID,0.578516,
2009-03-23, 02:24:04,VALID,1003.54,VALID,0,VALID,84.6501,VALID,0,VALID,25.5727,VALID,343,VALID,0.709766,
2009-03-23, 02:25:04,VALID,1003.52,VALID,0,VALID,84.9094,VALID,0,VALID,25.5727,VALID,352,VALID,0.385156,
2009-03-23, 02:26:04,VALID,1003.55,VALID,0,VALID,84.8484,VALID,0,VALID,25.5513,VALID,348,VALID,0.432813,
2009-03-23, 02:27:04,VALID,1003.54,VALID,0,VALID,84.7416,VALID,0,VALID,25.5727,VALID,350,VALID,0.816797,
2009-03-23, 02:28:04,VALID,1003.54,VALID,0,VALID,84.6882,VALID,0,VALID,25.6116,VALID,333,VALID,0.598828,
2009-03-23, 02:29:04,VALID,1003.51,VALID,0,VALID,84.5967,VALID,0,VALID,25.6311,VALID,325,VALID,0.583594,
2009-03-23, 02:30:04,VALID,1003.53,VALID,0,VALID,84.5585,VALID,0,VALID,25.6506,VALID,331,VALID,0.617969,
2009-03-23, 02:31:04,VALID,1003.55,VALID,0,VALID,84.6806,VALID,0,VALID,25.67,VALID,291,VALID,0.625,
2009-03-23, 02:32:04,VALID,1003.55,VALID,0,VALID,84.5051,VALID,0,VALID,25.709,VALID,298,VALID,0.351953,
2009-03-23, 02:33:04,VALID,1003.55,VALID,0,VALID,84.5509,VALID,0,VALID,25.7285,VALID,357,VALID,0.697656,
2009-03-23, 02:34:04,VALID,1003.57,VALID,0,VALID,84.5127,VALID,0,VALID,25.746,VALID,336,VALID,0.366406,
2009-03-23, 02:35:04,VALID,1003.6,VALID,0,VALID,84.4822,VALID,0,VALID,25.785,VALID,310,VALID,0.225781,
2009-03-23, 02:36:04,VALID,1003.56,VALID,0,VALID,84.2686,VALID,0,VALID,25.8044,VALID,312,VALID,0.458203,
2009-03-23, 02:37:04,VALID,1003.57,VALID,0,VALID,84.3678,VALID,0,VALID,25.8219,VALID,317,VALID,0.00117188,
2009-03-23, 02:38:04,VALID,1003.57,VALID,0,VALID,84.1008,VALID,0,VALID,25.8434,VALID,290,VALID,0.752344,
2009-03-23, 02:39:04,VALID,1003.53,VALID,0,VALID,84.055,VALID,0.100563,VALID,25.8629,VALID,285,VALID,0.3375,
2009-03-23, 02:40:04,VALID,1003.51,VALID,0,VALID,84.0931,VALID,0,VALID,25.8629,VALID,285,VALID,0.400781,
2009-03-23, 02:41:04,VALID,1003.46,VALID,0,VALID,84.0321,VALID,0,VALID,25.8629,VALID,313,VALID,0.397656,
2009-03-23, 02:42:04,VALID,1003.45,VALID,0,VALID,83.9635,VALID,0,VALID,25.9038,VALID,287,VALID,0.735937,
2009-03-23, 02:43:04,VALID,1003.42,VALID,0,VALID,83.8414,VALID,0,VALID,25.9038,VALID,269,VALID,0.376953,
2009-03-23, 02:44:04,VALID,1003.39,VALID,0,VALID,83.7575,VALID,0,VALID,25.9213,VALID,292,VALID,0.21875,
2009-03-23, 02:45:04,VALID,1003.35,VALID,0,VALID,83.7346,VALID,0,VALID,25.9427,VALID,329,VALID,0.205078,
2009-03-23, 02:46:04,VALID,1003.34,VALID,0,VALID,83.9253,VALID,0,VALID,25.9213,VALID,312,VALID,0.150391,
2009-03-23, 02:47:04,VALID,1003.35,VALID,0,VALID,83.9329,VALID,0,VALID,25.9427,VALID,303,VALID,0.275781,
2009-03-23, 02:48:04,VALID,1003.34,VALID,0,VALID,83.849,VALID,0,VALID,25.9018,VALID,283,VALID,0.0539063,
2009-03-23, 02:49:04,VALID,1003.34,VALID,0,VALID,83.8338,VALID,0,VALID,25.9018,VALID,292,VALID,1.07617,
2009-03-23, 02:50:04,VALID,1003.33,VALID,0,VALID,84.0931,VALID,0,VALID,25.9232,VALID,297,VALID,0.0339844,
2009-03-23, 02:51:04,VALID,1003.35,VALID,0,VALID,83.8643,VALID,0,VALID,25.9018,VALID,291,VALID,0.615625,
2009-03-23, 02:52:04,VALID,1003.36,VALID,0,VALID,83.8261,VALID,0,VALID,25.9232,VALID,296,VALID,0.344922,
2009-03-23, 02:53:04,VALID,1003.34,VALID,0,VALID,84.0321,VALID,0,VALID,25.9427,VALID,296,VALID,0.18125,
2009-03-23, 02:54:04,VALID,1003.33,VALID,0,VALID,83.9787,VALID,0,VALID,25.9232,VALID,296,VALID,0.201562,
2009-03-23, 02:55:04,VALID,1003.36,VALID,0,VALID,83.9482,VALID,0,VALID,25.9232,VALID,296,VALID,0.164063,
2009-03-23, 02:56:04,VALID,1003.34,VALID,0,VALID,83.9711,VALID,0,VALID,25.9018,VALID,287,VALID,0.404687,
2009-03-23, 02:57:04,VALID,1003.37,VALID,0,VALID,83.9711,VALID,0,VALID,25.8823,VALID,287,VALID,0.264062,
2009-03-23, 02:58:04,VALID,1003.39,VALID,0,VALID,84.0245,VALID,0,VALID,25.8843,VALID,288,VALID,0.635547,
2009-03-23, 02:59:04,VALID,1003.44,VALID,0,VALID,84.0321,VALID,0,VALID,25.8843,VALID,292,VALID,0.448047,
2009-03-23, 03:00:04,VALID,1003.45,VALID,0,VALID,84.1466,VALID,0,VALID,25.9057,VALID,293,VALID,0.119141,
2009-03-23, 03:01:04,VALID,1003.47,VALID,0,VALID,84.3754,VALID,0,VALID,25.8629,VALID,293,VALID,0.0078125,
2009-03-23, 03:02:04,VALID,1003.47,VALID,0,VALID,84.4517,VALID,0,VALID,25.8434,VALID,293,VALID,0.215234,
2009-03-23, 03:03:04,VALID,1003.52,VALID,0,VALID,84.6272,VALID,0,VALID,25.8453,VALID,268,VALID,0.439844,
2009-03-23, 03:04:04,VALID,1003.52,VALID,0,VALID,84.734,VALID,0,VALID,25.8239,VALID,268,VALID,0.173828,
2009-03-23, 03:05:04,VALID,1003.51,VALID,0,VALID,84.7263,VALID,0,VALID,25.8259,VALID,268,VALID,0.304688,
2009-03-23, 03:06:04,VALID,1003.49,VALID,0,VALID,84.7416,VALID,0,VALID,25.785,VALID,268,VALID,0.211328,
2009-03-23, 03:07:04,VALID,1003.5,VALID,0,VALID,84.7569,VALID,0,VALID,25.7869,VALID,268,VALID,0.021875,
2009-03-23, 03:08:04,VALID,1003.46,VALID,0,VALID,84.8637,VALID,0,VALID,25.7869,VALID,268,VALID,0.0535156,
2009-03-23, 03:09:04,VALID,1003.45,VALID,0,VALID,85.3595,VALID,0,VALID,25.7655,VALID,269,VALID,0.286328,
2009-03-23, 03:10:04,VALID,1003.43,VALID,0,VALID,85.2833,VALID,0,VALID,25.748,VALID,269,VALID,0.259375,
2009-03-23, 03:11:04,VALID,1003.42,VALID,0,VALID,85.3061,VALID,0,VALID,25.709,VALID,269,VALID,0.395312,
2009-03-23, 03:12:04,VALID,1003.4,VALID,0,VALID,85.7257,VALID,0,VALID,25.6895,VALID,269,VALID,0.132422,
2009-03-23, 03:13:04,VALID,1003.41,VALID,0,VALID,86.0156,VALID,0,VALID,25.6311,VALID,269,VALID,0,
2009-03-23, 03:14:04,VALID,1003.4,VALID,0,VALID,86.0843,VALID,0,VALID,25.5727,VALID,269,VALID,0,
2009-03-23, 03:15:04,VALID,1003.4,VALID,0,VALID,86.4123,VALID,0,VALID,25.5337,VALID,269,VALID,0,
2009-03-23, 03:16:04,VALID,1003.4,VALID,0,VALID,86.6031,VALID,0,VALID,25.5337,VALID,271,VALID,0.271875,
2009-03-23, 03:17:04,VALID,1003.39,VALID,0,VALID,86.7785,VALID,0,VALID,25.4948,VALID,270,VALID,0.0847656,
2009-03-23, 03:18:04,VALID,1003.42,VALID,0,VALID,86.8548,VALID,0,VALID,25.4344,VALID,270,VALID,0.202344,
2009-03-23, 03:19:04,VALID,1003.43,VALID,0,VALID,87.1676,VALID,0,VALID,25.4169,VALID,271,VALID,0.244922,
2009-03-23, 03:20:04,VALID,1003.46,VALID,0,VALID,87.2668,VALID,0,VALID,25.3974,VALID,270,VALID,0.201953,
2009-03-23, 03:21:04,VALID,1003.46,VALID,0,VALID,87.1828,VALID,0,VALID,25.3974,VALID,291,VALID,0.244531,
2009-03-23, 03:22:04,VALID,1003.48,VALID,0,VALID,87.1752,VALID,0,VALID,25.4169,VALID,291,VALID,0,
2009-03-23, 03:23:04,VALID,1003.49,VALID,0,VALID,87.2134,VALID,0,VALID,25.376,VALID,291,VALID,0.0355469,
2009-03-23, 03:24:04,VALID,1003.5,VALID,0,VALID,87.2515,VALID,0,VALID,25.3779,VALID,291,VALID,0.160938,
2009-03-23, 03:25:04,VALID,1003.54,VALID,0,VALID,87.2668,VALID,0,VALID,25.3974,VALID,292,VALID,0.310547,
2009-03-23, 03:26:04,VALID,1003.52,VALID,0,VALID,87.1294,VALID,0,VALID,25.3955,VALID,292,VALID,0.248437,
2009-03-23, 03:27:04,VALID,1003.53,VALID,0,VALID,87.1142,VALID,0,VALID,25.4363,VALID,292,VALID,0.172266,
2009-03-23, 03:28:04,VALID,1003.53,VALID,0,VALID,87.1981,VALID,0,VALID,25.4558,VALID,292,VALID,0.090625,
2009-03-23, 03:29:04,VALID,1003.52,VALID,0,VALID,87.1371,VALID,0,VALID,25.4539,VALID,311,VALID,0.501953,
2009-03-23, 03:30:04,VALID,1003.58,VALID,0,VALID,87.1371,VALID,0,VALID,25.4948,VALID,352,VALID,0.516016,
2009-03-23, 03:31:04,VALID,1003.6,VALID,0,VALID,87.0913,VALID,0,VALID,25.4753,VALID,352,VALID,0.147656,
2009-03-23, 03:32:04,VALID,1003.57,VALID,0,VALID,87.0074,VALID,0,VALID,25.4948,VALID,352,VALID,0.00078125,
2009-03-23, 03:33:04,VALID,1003.57,VALID,0,VALID,87.0074,VALID,0,VALID,25.5142,VALID,284,VALID,0.391016,
2009-03-23, 03:34:04,VALID,1003.59,VALID,0,VALID,86.7251,VALID,0,VALID,25.5337,VALID,284,VALID,0.183203,
2009-03-23, 03:35:04,VALID,1003.59,VALID,0,VALID,86.542,VALID,0.100563,VALID,25.5337,VALID,284,VALID,0.0570313,
2009-03-23, 03:36:04,VALID,1003.58,VALID,0,VALID,86.4047,VALID,0,VALID,25.5727,VALID,290,VALID,0.697266,
2009-03-23, 03:37:04,VALID,1003.62,VALID,0,VALID,86.2369,VALID,0,VALID,25.6097,VALID,293,VALID,0.602734,
2009-03-23, 03:38:04,VALID,1003.59,VALID,0,VALID,86.1758,VALID,0,VALID,25.6486,VALID,282,VALID,0.0105469,
2009-03-23, 03:39:04,VALID,1003.61,VALID,0,VALID,86.1529,VALID,0,VALID,25.6292,VALID,282,VALID,0.216016,
2009-03-23, 03:40:04,VALID,1003.65,VALID,0,VALID,85.9241,VALID,0,VALID,25.6311,VALID,350,VALID,0.650781,
2009-03-23, 03:41:04,VALID,1003.7,VALID,0,VALID,85.9393,VALID,0,VALID,25.6506,VALID,293,VALID,0.574219,
2009-03-23, 03:42:04,VALID,1003.7,VALID,0,VALID,85.8402,VALID,0,VALID,25.6311,VALID,296,VALID,0.577344,
2009-03-23, 03:43:04,VALID,1003.69,VALID,0,VALID,85.6494,VALID,0,VALID,25.67,VALID,352,VALID,0.903125,
2009-03-23, 03:44:04,VALID,1003.72,VALID,0,VALID,84.9857,VALID,0,VALID,25.7071,VALID,343,VALID,0.977344,